CAPE
26 21 19 16 12 6 4 1 0 1 1 8 27 12 9 0 5 3 0 0 2 18 0 0 0 0 0 0 0 0 0 0 0 7 0 0 0 0 0 0 0 0 0 0 0 0 4 6 20 0 0 0 0 0
27 20 20 17 16 6 5 2 4 4 1 5 19 19 11 10 0 25 0 0 1 17 0 0 0 0 0 0 0 0 0 0 0 0 0 0 0 0 0 0 0 0 0 1 0 0 3 38 1 0 0 0 0 0
40 26 21 21 22 23 16 20 22 20 3 2 3 26 17 19 12 23 8 1 0 2 0 0 0 0 0 0 0 0 0 0 0 0 0 0 0 0 0 0 0 22 0 37 3 4 16 64 0 0 0 0 0 0
31 24 23 25 22 19 16 22 24 23 13 0 1 27 21 20 10 23 17 8 6 17 11 0 0 0 0 0 0 0 0 0 0 0 0 0 0 0 0 0 0 0 0 5 4 67 37 8 62 57 23 0 1 0
40 27 26 26 22 21 18 20 24 25 19 0 0 24 24 17 13 16 7 0 2 2 7 0 0 0 0 0 0 0 0 0 0 0 0 0 0 0 0 0 0 0 0 0 0 13 30 34 12 0 0 0 0 1
46 44 45 41 33 20 16 16 18 28 21 1 1 32 23 11 11 10 1 0 4 8 9 2 0 0 0 0 0 0 0 0 0 0 0 0 0 0 0 0 0 0 4 0 72 10 3 22 3 0 0 0 0 27
32 59 53 45 31 21 15 16 22 27 16 10 21 29 16 6 7 13 4 0 0 0 3 6 0 0 1 0 0 0 0 0 0 0 0 0 0 0 0 0 0 0 0 3 117 20 34 22 0 1 0 0 28 105
24 28 35 38 31 19 11 16 25 25 7 14 32 9 1 0 1 0 0 0 0 0 3 21 0 0 17 13 0 0 0 0 0 0 0 0 0 0 0 0 0 0 1 0 325 188 18 21 47 99 29 103 66 11
41 40 31 27 18 17 7 13 23 20 18 31 2 0 0 5 8 0 6 0 0 1 12 28 3 0 1 18 19 1 0 2 0 0 0 0 0 0 0 24 0 0 0 0 59 261 32 170 144 259 213 161 18 0
29 35 31 23 13 7 5 11 28 21 37 5 0 3 1 1 13 14 2 18 18 20 8 9 0 0 0 30 14 22 6 16 4 4 0 0 0 0 0 0 0 0 0 0 0 21 260 103 240 283 347 229 0 0
33 22 17 2 3 2 2 24 32 33 3 0 1 7 0 17 8 5 23 18 3 13 0 0 0 0 0 10 26 14 15 5 41 35 0 0 0 0 0 0 0 0 0 0 0 0 172 54 297 255 155 62 9 0
32 28 3 1 0 0 36 28 22 7 8 3 0 0 0 11 1 30 28 16 4 2 0 0 0 0 2 2 0 0 8 2 0 15 30 1 0 0 0 0 0 0 0 0 0 0 0 0 2 112 216 181 134 45
47 34 3 0 0 25 32 26 17 1 0 5 8 7 18 17 25 27 3 29 22 7 33 59 24 13 0 0 8 0 7 17 44 13 4 0 3 0 0 0 0 0 0 0 0 0 0 4 2 0 260 222 202 55
14 4 0 10 19 16 31 22 3 1 0 2 24 3 6 8 7 3 11 0 9 6 3 7 27 17 5 33 11 10 0 22 5 2 0 8 0 0 7 39 0 1 4 1 0 6 0 0 74 0 36 132 191 99
13 8 12 9 7 5 12 11 9 0 15 3 9 1 0 0 0 19 19 16 1 1 1 1 7 0 41 31 16 19 5 8 1 8 11 21 0 48 133 134 6 0 66 47 0 0 0 0 37 14 72 232 271 189
2 0 0 0 1 4 5 5 1 1 3 7 5 3 0 0 0 38 32 40 48 0 6 0 15 14 18 11 11 1 6 19 13 33 16 55 112 28 1 0 27 156 15 5 2 1 0 0 3 19 159 291 296 292
2 1 1 10 5 4 0 0 0 4 9 12 3 0 0 0 0 0 32 13 0 6 15 6 23 21 1 7 9 21 24 16 62 85 94 91 32 0 0 0 1 36 229 304 219 161 125 16 0 3 207 368 468 398
2 6 1 11 4 13 12 4 14 17 10 1 0 0 0 0 7 12 6 0 2 6 0 8 4 12 21 16 10 3 23 4 4 61 116 11 47 0 0 0 30 78 87 203 386 363 243 113 20 41 243 529 566 513
9 3 8 13 2 11 8 14 3 4 2 0 0 0 0 0 5 2 15 10 4 12 8 8 0 0 1 11 0 0 0 0 0 4 18 30 114 38 66 90 92 178 322 224 252 352 354 229 265 19 243 454 627 608
3 1 1 8 13 8 12 16 2 1 0 0 0 0 0 0 0 6 29 15 21 0 6 0 0 12 20 21 0 0 5 3 0 0 16 1 0 0 0 0 2 0 2 45 122 298 363 324 296 103 286 353 442 594
2 0 4 7 11 13 8 7 25 4 0 0 0 0 0 0 0 0 2 12 10 0 0 0 0 0 0 11 34 17 43 6 0 1 0 26 1 0 0 0 0 0 0 0 0 29 64 42 5 9 14 274 355 469
6 20 15 14 21 18 2 0 0 0 2 1 1 0 2 8 1 0 0 6 0 0 0 1 0 0 12 18 8 16 99 31 0 0 0 0 2 9 0 0 0 0 0 0 11 26 0 0 0 0 0 0 2 6
9 17 20 20 18 7 0 0 2 6 8 12 6 3 9 12 8 3 0 0 0 0 0 0 0 0 8 0 119 37 3 1 0 0 0 7 1 0 0 0 1 8 0 8 11 0 0 0 0 0 0 0 0 0
0 10 7 11 10 0 0 5 12 1 5 7 11 29 24 26 31 21 10 9 4 2 1 62 118 62 45 10 30 22 0 0 0 0 0 0 0 0 0 40 5 1 0 0 0 0 0 0 0 0 0 0 0 0
18 0 0 9 10 7 13 2 0 0 11 14 14 28 18 23 22 26 14 1 3 5 36 23 33 35 36 24 18 6 0 3 0 0 4 5 1 1 7 1 0 0 0 0 0 0 0 0 0 0 0 0 0 0
6 1 1 4 9 15 19 23 40 32 34 40 33 28 9 24 26 1 23 19 18 23 35 75 25 2 0 1 0 0 0 45 25 18 3 0 0 0 0 0 0 0 0 0 0 2 0 9 2 0 0 0 0 0
0 1 2 0 0 0 0 14 24 10 26 37 55 30 28 17 13 23 17 17 17 21 30 1 9 1 0 0 0 0 0 0 21 3 0 0 0 0 0 0 0 0 0 0 0 0 0 3 6 0 0 0 0 0
6 2 6 12 0 0 0 29 33 34 19 31 37 26 29 22 7 8 22 14 0 46 15 5 11 18 0 0 0 0 7 2 86 79 3 1 0 14 31 35 7 0 0 0 0 0 0 8 0 0 0 0 0 0
0 19 18 5 19 21 39 7 7 19 10 23 35 19 4 6 4 2 6 9 13 75 9 11 28 13 34 17 0 10 0 0 0 0 2 0 3 7 33 41 2 17 1 0 0 11 132 38 17 0 0 0 0 0
15 6 3 13 42 4 1 22 16 15 28 39 38 9 0 3 6 2 1 4 25 34 19 6 12 8 21 12 0 0 0 0 0 0 1 1 0 0 0 0 0 27 31 7 0 1 9 12 17 22 41 8 0 0
49 28 12 33 25 13 2 3 7 17 55 79 53 1 1 1 12 1 0 4 5 1 9 19 43 1 0 0 0 0 0 0 0 0 0 0 0 0 0 0 0 0 89 118 81 61 35 29 34 66 32 24 38 25
0 1 2 22 23 29 43 30 33 31 36 49 42 44 48 22 13 1 0 0 0 0 0 0 0 0 0 0 0 0 0 0 0 0 0 0 0 0 0 0 0 0 0 0 0 0 0 0 1 10 3 0 5 0
11 5 10 22 27 28 13 13 10 10 18 41 66 57 34 1 3 2 13 18 1 0 0 0 0 1 0 0 0 0 0 0 0 0 0 0 0 0 0 0 0 0 0 0 0 0 0 0 0 0 0 4 15 11
CIN
-4 -7 -6 -3 -2 -1 -1 -0 -0 -0 -0 -0 -0 -0 -0 -0 -0 -1 -0 -0 -4 -1 -0 -0 -0 -0 -0 -0 -0 -0 -0 -0 -0 -169 -0 -0 -0 -0 -0 -0 -0 -0 -0 -0 -0 -0 -12 -77 -58 -0 -0 -0 -0 -0
-3 -10 -9 -5 -4 -1 -1 -0 -1 -1 -0 -0 -0 -0 -0 -0 -0 -0 -0 -1 -2 -3 -3 -0 -0 -0 -0 -0 -0 -5 -0 -0 -0 -0 -0 -0 -0 -0 -0 -0 -0 -0 -0 -36 -0 -0 -192 -188 -7 -0 -0 -0 -0 -0
-0 -9 -10 -8 -7 -6 -5 -2 -2 -3 -3 -0 -0 -0 -0 -0 -0 -0 -1 -27 -0 -7 -0 -0 -0 -0 -0 -0 -0 -0 -0 -0 -0 -0 -0 -0 -0 -0 -0 -0 -0 -124 -18 -90 -14 -80 -183 -339 -8 -0 -0 -0 -0 -0
-1 -7 -6 -5 -8 -7 -7 -5 -3 -3 -5 -0 -0 -2 -3 -0 -1 -0 -0 -9 -4 -1 -0 -0 -0 -0 -0 -0 -0 -0 -0 -0 -0 -0 -0 -0 -3 -0 -0 -0 -66 -0 -0 -83 -74 -246 -306 -167 -316 -349 -374 -0 -28 -63
-0 -1 -6 -5 -7 -8 -5 -4 -5 -6 -5 -0 -0 -5 -4 -0 -5 -3 -11 -0 -12 -2 -0 -0 -0 -0 -0 -0 -0 -0 -0 -0 -0 -0 -0 -0 -0 -0 -0 -0 -102 -0 -0 -0 -4 -173 -175 -280 -144 -0 -0 -0 -0 -92
-0 -0 -0 -0 -0 -4 -6 -7 -9 -5 -8 -4 -5 -0 -2 -3 -6 -1 -1 -0 -21 -9 -1 -1 -0 -0 -0 -0 -0 -0 -0 -0 -0 -0 -0 -0 -0 -0 -0 -0 -0 -0 -214 -0 -69 -201 -122 -336 -291 -0 -0 -0 -0 -217
-0 -0 -0 -0 -2 -5 -8 -7 -8 -4 -9 -1 -2 -0 -6 -19 -3 -0 -2 -0 -0 -0 -1 -2 -0 -0 -34 -0 -0 -0 -0 -0 -0 -0 -0 -0 -0 -0 -0 -0 -0 -0 -0 -28 -206 -270 -268 -275 -0 -42 -0 -0 -276 -159
-1 -1 -0 -1 -4 -6 -3 -6 -4 -1 -2 -3 -0 -2 -19 -16 -13 -0 -0 -0 -0 -17 -10 -0 -0 -0 -121 -46 -0 -0 -0 -0 -0 -2 -1 -0 -0 -0 -0 -0 -0 -0 -46 -0 -118 -134 -114 -189 -275 -221 -246 -205 -181 -154
-0 -0 -0 -1 -6 -6 -3 -4 -0 -0 -2 -1 -8 -5 -0 -2 -0 -0 -33 -0 -0 -1 -3 -1 -1 -0 -74 -67 -144 -26 -11 -23 -7 -0 -0 -0 -0 -0 -0 -147 -0 -0 -0 -0 -105 -123 -227 -192 -225 -189 -173 -168 -194 -0
-2 -0 -0 -3 -2 -1 -3 -8 -1 -1 -0 -11 -0 -8 -0 -9 -32 -9 -15 -2 -0 -0 -7 -0 -0 -0 -0 -49 -89 -44 -97 -15 -15 -16 -0 -0 -0 -0 -0 -0 -0 -0 -0 -0 -0 -36 -129 -151 -155 -154 -141 -153 -0 -0
-12 -10 -7 -2 -0 -0 -15 -3 -0 -0 -5 -0 -5 -2 -1 -8 -18 -15 -0 -1 -3 -0 -0 -0 -0 -0 -0 -28 -32 -31 -26 -83 -9 -23 -0 -0 -0 -0 -0 -0 -0 -0 -0 -0 -0 -0 -107 -135 -121 -140 -129 -159 -178 -0
-8 -11 -3 -7 -0 -7 -0 -3 -1 -8 -7 -4 -6 -0 -0 -0 -1 -0 -4 -11 -0 -4 -0 -0 -0 -0 -14 -108 -11 -2 -12 -33 -0 -78 -30 -1 -0 -0 -0 -0 -0 -0 -0 -0 -0 -0 -0 -0 -167 -158 -150 -137 -154 -228
-7 -12 -7 -5 -7 -1 -1 -1 -2 -15 -0 -11 -3 -10 -0 -2 -1 -0 -5 -17 -29 -72 -37 -56 -27 -65 -0 -10 -65 -0 -3 -3 -17 -16 -39 -10 -180 -0 -0 -0 -0 -0 -0 -0 -0 -0 -0 -69 -174 -0 -170 -168 -171 -279
-16 -12 -2 -23 -3 -2 -1 -1 -5 -17 -0 -3 -0 -0 -0 -4 -6 -2 -10 -0 -57 -51 -66 -96 -63 -68 -115 -50 -74 -22 -4 -21 -18 -15 -6 -162 -27 -0 -296 -255 -0 -59 -97 -16 -0 -126 -0 -0 -176 -0 -168 -286 -232 -245
-5 -13 -19 -20 -5 -11 -4 -8 -4 -0 -1 -0 -0 -2 -5 -0 -0 -26 -12 -36 -41 -34 -31 -34 -97 -0 -57 -26 -48 -32 -21 -25 -47 -37 -70 -150 -0 -229 -281 -285 -95 -0 -151 -149 -0 -0 -0 -0 -184 -234 -277 -212 -231 -255
-25 -0 -0 -30 -27 -18 -18 -12 -9 -16 -17 -4 -0 -0 -0 -0 -0 -24 -20 -26 -17 -2 -51 -0 -45 -41 -27 -57 -27 -28 -15 -15 -30 -75 -124 -161 -155 -288 -78 -0 -423 -276 -127 -56 -52 -62 -0 -0 -71 -226 -295 -235 -251 -256
-0 -0 -33 -18 -20 -22 -53 -0 -1 -0 -4 -0 -1 -0 -0 -0 -0 -0 -33 -44 -9 -80 -31 -40 -27 -21 -17 -28 -29 -25 -30 -82 -131 -94 -132 -142 -162 -0 -0 -0 -289 -284 -223 -150 -130 -159 -181 -172 -0 -135 -226 -239 -227 -244
-0 -30 -6 -19 -23 -13 -10 -13 -1 -0 -3 -2 -0 -0 -0 -9 -36 -59 -68 -10 -85 -41 -0 -17 -56 -22 -22 -18 -32 -66 -79 -129 -178 -121 -133 -187 -173 -0 -0 -0 -171 -191 -226 -144 -149 -162 -177 -190 -255 -256 -182 -220 -217 -235
-4 -0 -0 -0 -12 -3 -1 -0 -3 -0 -0 -0 -0 -0 -0 -0 -73 -79 -77 -135 -118 -87 -58 -44 -2 -8 -22 -55 -0 -0 -0 -0 -0 -81 -206 -198 -152 -152 -112 -168 -176 -145 -108 -144 -162 -152 -170 -203 -179 -314 -212 -219 -181 -215
-0 -0 -0 -0 -22 -13 -0 -0 -6 -2 -0 -0 -0 -0 -0 -0 -0 -38 -46 -112 -81 -1 -33 -0 -10 -31 -17 -48 -7 -0 -105 -92 -0 -0 -90 -47 -0 -0 -0 -0 -46 -0 -151 -192 -195 -167 -159 -162 -215 -270 -172 -155 -159 -200
-0 -0 -0 -0 -0 -0 -0 -2 -0 -2 -0 -0 -0 -0 -0 -0 -0 -0 -32 -108 -41 -0 -11 -0 -0 -0 -0 -73 -85 -112 -76 -129 -0 -14 -1 -106 -9 -0 -0 -0 -0 -0 -3 -3 -3 -199 -226 -233 -408 -435 -372 -175 -154 -183
-0 -0 -0 -0 -0 -0 -1 -0 -0 -0 -8 -32 -14 -0 -21 -29 -10 -0 -0 -22 -0 -19 -0 -53 -63 -21 -73 -68 -63 -26 -116 -149 -0 -0 -0 -47 -36 -169 -0 -0 -0 -0 -0 -0 -237 -219 -0 -0 -0 -0 -0 -0 -75 -313
-1 -1 -0 -1 -0 -2 -0 -0 -1 -11 -9 -15 -20 -8 -13 -8 -31 -35 -0 -0 -0 -0 -0 -0 -0 -0 -105 -20 -71 -153 -184 -68 -10 -0 -0 -163 -186 -0 -42 -0 -110 -103 -98 -223 -281 -0 -0 -0 -0 -0 -0 -0 -0 -0
-11 -4 -1 -2 -5 -0 -0 -6 -10 -4 -14 -9 -8 -3 -9 -16 -22 -15 -8 -19 -18 -18 -36 -61 -60 -59 -83 -95 -116 -134 -0 -0 -0 -0 -0 -0 -0 -0 -0 -150 -185 -193 -0 -0 -0 -0 -0 -0 -33 -31 -0 -0 -0 -0
-0 -0 -0 -1 -4 -0 -2 -2 -0 -0 -2 -5 -5 -5 -6 -12 -4 -10 -13 -27 -40 -63 -69 -94 -83 -85 -73 -134 -176 -171 -0 -175 -0 -0 -139 -174 -219 -36 -111 -22 -0 -0 -0 -0 -0 -0 -0 -0 -11 -0 -0 -0 -0 -0
-0 -3 -0 -4 -4 -3 -10 -4 -4 -4 -7 -1 -7 -12 -20 -7 -3 -7 -10 -30 -48 -59 -80 -55 -71 -25 -0 -71 -0 -0 -18 -84 -139 -169 -160 -0 -0 -0 -0 -6 -0 -0 -0 -0 -0 -97 -18 -212 -198 -0 -109 -0 -0 -0
-1 -6 -9 -0 -0 -0 -0 -12 -18 -13 -2 -1 -2 -3 -4 -0 -1 -13 -46 -73 -70 -92 -82 -31 -128 -171 -0 -0 -0 -0 -0 -0 -144 -102 -0 -0 -0 -0 -0 -0 -0 -0 -0 -0 -0 -0 -0 -63 -122 -0 -0 -0 -0 -0
-5 -5 -2 -7 -0 -0 -0 -4 -3 -3 -7 -7 -4 -2 -2 -1 -5 -30 -53 -64 -6 -78 -73 -118 -142 -183 -0 -0 -0 -0 -97 -188 -131 -122 -57 -116 -0 -163 -171 -160 -178 -0 -0 -0 -0 -0 -12 -108 -0 -0 -0 -0 -0 -0
-0 -8 -5 -3 -2 -5 -4 -6 -25 -11 -12 -6 -18 -12 -14 -27 -51 -50 -58 -52 -64 -98 -120 -120 -119 -156 -140 -138 -0 -109 -0 -0 -0 -0 -43 -0 -61 -64 -101 -145 -25 -200 -27 -5 -0 -31 -77 -92 -93 -12 -13 -0 -0 -0
-3 -17 -6 -1 -0 -12 -8 -14 -8 -38 -46 -75 -51 -36 -2 -24 -61 -105 -43 -102 -99 -81 -138 -144 -108 -101 -63 -73 -0 -0 -0 -0 -0 -0 -51 -47 -3 -0 -0 -0 -0 -109 -147 -175 -0 -18 -40 -109 -92 -77 -60 -65 -0 -0
-0 -3 -0 -1 -5 -30 -59 -43 -38 -40 -58 -32 -25 -19 -14 -8 -38 -24 -4 -52 -90 -106 -72 -70 -68 -97 -0 -0 -0 -0 -0 -0 -0 -0 -0 -0 -0 -0 -0 -0 -0 -9 -77 -63 -68 -84 -74 -75 -62 -43 -45 -52 -50 -62
-0 -0 -33 -9 -12 -24 -25 -25 -20 -33 -53 -42 -26 -29 -29 -24 -16 -30 -0 -6 -0 -0 -0 -0 -0 -0 -0 -0 -0 -0 -0 -0 -0 -0 -0 -0 -0 -0 -0 -0 -0 -0 -0 -0 -5 -0 -3 -3 -13 -55 -50 -3 -50 -4
-40 -42 -14 -10 -10 -14 -26 -27 -34 -30 -26 -26 -22 -18 -21 -32 -13 -55 -79 -85 -30 -0 -0 -0 -0 -74 -0 -0 -0 -0 -0 -0 -0 -0 -0 -0 -0 -0 -0 -0 -0 -0 -0 -0 -0 -0 -0 -0 -0 -0 -0 -110 -58 -82
Wind_Speed
12 10 9 8 8 9 9 10 11 11 11 12 9 8 9 8 8 3 5 4 2 3 8 8 7 4 4 3 3 5 7 4 6 5 3 2 2 3 4 3 8 7 6 3 4 3 4 6 2 4 6 2 6 4
13 10 10 9 9 8 8 9 9 9 10 11 12 8 8 7 8 6 3 3 1 4 7 9 15 17 17 15 3 1 3 1 4 2 5 5 2 3 4 3 3 2 6 6 7 8 4 2 2 2 7 6 6 5
13 10 10 10 10 10 10 10 10 10 8 10 12 9 8 7 8 6 3 3 2 3 7 4 8 8 11 21 16 3 2 4 3 2 2 4 4 2 3 1 3 1 3 4 4 3 5 6 6 3 4 7 7 6
13 11 11 10 9 8 9 10 10 10 8 9 11 12 6 7 9 8 2 2 2 3 4 9 5 9 5 8 18 20 10 4 2 2 2 3 5 1 3 4 4 4 3 6 3 9 10 5 5 8 9 7 6 7
12 11 10 10 10 9 10 11 10 11 8 9 10 12 6 7 9 6 5 4 5 2 4 8 16 13 9 11 17 17 14 3 1 1 3 3 3 3 3 3 1 4 5 5 6 9 6 6 9 9 5 2 4 6
10 9 9 10 10 9 10 11 13 11 8 8 10 10 6 7 6 2 3 2 4 3 3 6 6 8 4 10 16 17 10 4 2 0 4 4 2 2 1 2 4 5 3 6 4 5 5 12 7 3 5 6 2 5
11 10 10 11 9 9 10 12 14 13 6 8 9 7 7 7 2 3 2 0 4 1 2 5 6 7 3 3 3 3 6 4 5 2 4 4 4 3 1 3 5 4 2 2 10 15 7 4 7 7 8 8 6 4
11 11 10 11 10 9 9 12 14 10 8 9 8 6 7 7 6 5 5 12 4 1 1 4 6 5 5 1 3 3 5 3 4 4 4 4 2 1 3 7 2 6 1 5 8 6 10 10 6 8 10 8 8 12
12 12 11 10 9 8 9 12 13 8 8 6 5 5 2 2 3 3 4 9 2 1 2 3 3 4 4 4 3 3 4 3 3 7 11 4 3 5 7 6 4 3 2 2 8 6 15 17 12 11 11 7 7 11
12 11 11 10 8 9 11 12 12 8 6 3 1 1 3 4 7 7 1 2 2 2 3 4 3 5 3 3 3 3 3 2 4 5 4 5 6 5 7 6 6 5 5 6 3 6 12 14 15 14 16 15 16 16
13 11 9 8 10 11 13 13 9 6 1 1 2 3 2 3 0 2 3 4 3 4 5 5 7 4 3 3 3 1 3 4 1 5 6 4 7 11 8 13 7 7 7 7 7 8 14 18 18 15 14 15 14 15
12 10 9 9 8 11 10 6 6 3 1 2 2 4 2 2 2 3 4 4 5 5 4 3 5 6 3 3 3 2 2 2 3 5 2 4 4 8 8 10 9 8 7 8 5 6 6 5 11 18 17 16 16 16
12 10 8 7 7 8 4 6 8 3 5 1 2 2 2 3 3 5 4 4 3 2 3 4 4 4 3 4 3 3 3 4 3 3 4 5 3 2 3 7 11 8 8 7 7 5 5 7 9 9 15 14 15 14
4 1 4 6 5 3 3 5 5 2 1 1 2 4 4 4 5 4 2 3 3 3 4 3 2 4 2 3 2 3 5 2 4 4 6 4 4 3 6 9 7 10 10 9 10 9 7 3 8 9 12 14 15 15
3 2 2 3 6 5 5 6 6 1 1 2 2 4 5 5 3 3 4 3 2 3 3 3 1 3 2 1 3 1 1 4 5 5 4 5 2 2 6 3 6 7 7 7 7 7 7 5 7 8 8 15 16 15
4 4 4 7 9 6 6 6 2 1 2 3 4 4 5 3 5 3 2 2 1 2 3 3 3 2 3 3 3 6 3 4 3 4 2 3 0 3 2 3 6 6 2 6 6 6 7 6 7 9 8 14 16 18
2 2 3 6 8 8 10 2 2 3 3 4 5 4 6 5 5 5 2 3 3 2 3 2 1 3 2 1 4 2 2 4 4 2 0 2 2 4 7 4 5 6 7 6 1 2 6 7 7 8 12 12 15 18
2 2 3 8 7 6 1 1 2 4 7 6 5 4 4 5 4 3 4 1 2 1 1 0 1 1 3 3 2 2 2 4 3 3 2 2 2 5 5 5 5 5 6 5 4 4 3 1 6 9 14 14 13 13
2 3 1 10 3 2 2 3 2 4 7 4 6 7 4 4 5 6 4 4 3 2 2 2 1 3 4 3 3 4 3 3 3 4 4 2 2 5 5 4 5 6 6 5 5 3 4 4 5 4 8 11 12 10
7 6 4 10 6 1 3 3 3 4 5 5 3 4 4 4 4 2 2 3 4 3 0 3 5 4 2 3 4 5 3 2 2 1 4 5 3 4 4 4 4 5 5 7 6 5 3 4 2 5 7 11 10 11
1 3 6 6 2 2 3 3 4 5 4 3 3 1 4 2 2 3 2 4 3 3 4 5 5 5 5 5 4 4 4 2 4 2 2 3 5 2 4 5 5 2 2 4 5 9 5 2 3 4 3 5 10 11
1 2 3 2 2 3 4 4 4 4 3 4 3 3 3 2 3 3 3 2 4 5 5 4 4 4 4 5 5 3 4 4 5 3 3 2 3 3 4 3 3 3 2 3 4 4 3 3 4 7 9 7 10 8
1 1 1 3 3 3 7 2 4 4 3 4 2 2 1 2 3 2 1 4 5 4 5 5 6 6 7 4 2 3 3 1 1 1 3 3 3 1 3 2 2 2 3 3 2 1 1 4 2 8 8 10 8 3
1 1 2 3 4 5 4 4 4 3 3 2 2 2 1 3 2 1 3 2 3 3 3 3 2 2 2 2 3 1 1 2 1 3 3 1 2 3 3 4 1 2 4 4 4 5 3 0 1 2 4 5 8 2
1 3 3 5 3 4 5 3 3 3 3 4 3 4 3 3 3 2 1 3 3 3 3 4 3 3 1 2 3 3 2 2 2 2 4 4 4 3 3 2 2 3 5 4 4 3 3 2 3 1 5 7 9 10
4 5 6 4 3 4 3 3 3 4 4 3 2 0 1 2 4 2 1 2 2 2 2 3 1 2 1 1 2 3 2 3 3 3 2 2 3 4 4 4 2 4 2 1 3 3 4 2 6 4 4 2 4 4
3 5 5 5 3 3 4 3 4 4 5 2 2 2 1 3 2 1 2 3 3 3 2 3 3 4 3 1 3 4 3 4 4 5 3 2 2 2 3 1 2 3 3 3 3 2 2 4 4 4 3 3 3 4
4 4 4 2 3 3 3 3 2 3 1 2 3 1 3 1 0 3 4 3 4 3 3 4 2 2 4 2 2 4 5 5 3 4 5 5 4 4 4 2 1 1 4 3 1 3 4 5 5 5 6 6 4 1
4 3 2 5 4 4 2 0 2 2 2 2 2 1 1 1 2 1 3 3 2 6 4 3 2 3 3 3 3 3 5 6 7 7 9 4 4 4 1 2 3 2 3 4 8 7 7 6 6 6 6 5 4 3
3 2 1 3 2 1 2 2 3 3 3 4 3 3 3 3 2 2 3 4 5 5 3 2 3 3 3 4 5 8 7 6 7 7 6 5 4 5 5 5 2 3 4 5 5 2 5 4 3 3 4 3 3 3
1 2 2 3 4 4 5 4 5 5 4 1 2 2 2 1 4 4 4 2 3 4 4 3 2 2 6 5 5 6 5 6 7 8 6 4 5 5 6 7 7 4 3 5 2 1 1 0 1 3 4 4 4 3
5 6 4 3 1 1 2 1 0 4 5 4 4 2 3 4 3 4 3 4 5 5 5 6 6 4 5 4 5 5 8 4 5 5 8 5 5 5 6 6 9 10 12 12 13 12 11 9 6 5 2 5 4 6
5 5 2 2 2 2 2 3 3 2 4 2 2 2 2 3 2 3 3 1 4 4 4 3 3 5 7 7 7 6 7 6 9 11 11 12 12 10 7 7 7 9 12 11 10 11 13 12 10 13 12 10 8 7
Wind_Direction
299 294 295 304 304 311 314 311 313 314 309 316 293 297 307 315 323 336 272 276 224 257 280 258 253 253 282 233 184 309 351 352 313 50 39 273 131 188 95 165 156 156 133 174 88 103 247 190 118 193 197 39 174 212
299 298 291 285 278 288 295 300 298 304 305 303 313 286 296 296 307 311 275 290 326 238 266 303 271 250 231 244 316 210 226 250 266 352 31 315 12 59 144 183 350 84 168 177 157 207 229 48 155 291 162 155 196 193
297 294 285 284 287 291 297 302 302 285 298 299 297 285 285 297 294 296 260 285 320 272 283 259 254 261 215 219 210 244 245 227 346 354 34 287 322 150 122 256 91 349 132 108 91 238 111 115 98 97 148 162 157 171
293 285 287 290 292 295 300 301 307 304 281 290 290 301 266 290 291 296 232 254 309 280 275 283 314 285 295 211 201 212 229 4 51 38 221 208 261 29 178 164 120 199 12 137 89 84 78 30 135 166 166 152 159 138
298 297 292 293 291 292 298 301 303 299 280 289 288 298 283 293 295 287 251 228 216 237 291 287 303 273 253 200 204 211 219 183 184 302 252 221 272 33 311 83 144 174 185 148 210 179 140 193 192 195 159 192 174 156
300 285 289 295 292 290 299 302 303 300 282 284 286 299 293 289 314 293 311 71 201 187 285 291 288 289 303 194 193 197 205 147 165 81 296 270 282 80 49 169 232 180 158 185 197 134 140 168 176 211 154 152 112 94
294 290 287 288 281 284 300 303 303 305 285 279 287 280 286 292 263 227 242 53 3 160 265 289 292 267 252 130 113 126 175 165 113 268 257 260 302 56 238 188 258 51 254 136 126 112 75 179 177 178 122 119 115 137
290 290 291 289 290 280 292 302 306 306 288 283 275 272 283 297 273 286 246 224 184 223 245 279 277 296 8 96 150 148 155 147 137 183 276 242 303 86 255 232 86 56 329 160 192 191 150 152 141 145 134 143 142 138
279 275 277 285 282 286 295 300 308 293 287 284 276 290 313 206 233 240 343 140 147 182 277 267 285 271 349 354 20 17 135 157 196 186 224 178 221 210 230 219 59 37 6 242 227 139 137 149 175 162 158 166 156 162
269 271 269 266 290 294 289 294 297 287 281 302 312 201 241 209 164 137 87 131 187 213 224 245 262 272 36 31 15 21 8 216 184 227 152 178 228 232 241 225 233 259 260 330 238 130 159 162 176 180 183 183 180 164
262 261 261 265 277 282 283 281 269 255 342 240 226 240 338 114 249 212 223 200 169 229 216 232 203 219 301 122 116 204 231 323 276 262 152 223 243 216 234 247 227 221 222 257 264 171 172 167 175 171 178 180 174 166
284 262 244 251 271 284 284 220 202 167 239 286 269 271 317 228 223 254 217 185 205 237 199 209 205 182 228 119 97 2 67 354 262 331 247 243 260 215 187 230 243 229 216 246 273 141 190 196 169 175 176 175 179 174
265 246 230 241 278 292 221 185 193 277 342 269 236 256 218 211 221 225 226 223 227 319 4 11 327 144 40 55 78 129 163 211 320 268 256 240 259 240 277 242 225 210 217 214 252 262 172 206 203 164 171 177 170 169
13 187 231 253 234 248 198 190 188 199 294 265 246 278 223 218 235 199 316 302 296 311 337 282 263 54 135 96 146 156 224 124 239 225 238 240 245 289 291 271 214 201 200 211 219 229 231 221 210 191 169 163 162 168
349 318 286 258 214 216 208 180 178 157 278 259 233 244 232 250 286 286 187 263 298 291 333 332 300 131 82 169 202 238 230 241 222 241 241 240 238 281 313 0 194 200 187 198 206 209 224 209 202 201 166 169 169 163
310 299 236 232 191 196 188 141 128 161 260 245 234 258 256 294 287 307 246 199 202 311 20 347 301 19 220 190 156 219 224 223 245 221 264 354 2 257 281 57 39 25 243 193 204 210 220 208 195 202 171 172 166 164
297 256 350 163 157 153 145 114 158 202 241 239 243 225 259 290 256 258 241 230 192 145 211 159 98 229 296 260 237 194 11 272 293 356 61 247 208 219 259 7 23 31 354 337 58 306 236 219 185 150 172 187 175 175
259 328 183 151 141 127 134 239 231 229 239 237 246 241 212 222 243 251 246 232 117 248 48 264 208 305 237 261 330 280 310 311 296 303 280 291 334 318 341 24 307 359 299 287 308 305 342 124 170 182 181 176 177 177
322 355 168 172 169 177 167 201 209 266 244 236 243 248 239 248 231 220 210 173 178 176 61 352 263 227 239 223 209 262 223 217 261 312 314 302 191 205 232 247 267 280 288 301 305 290 276 228 221 179 185 169 178 178
278 261 248 201 221 182 230 216 201 248 264 236 243 233 222 224 230 214 209 141 137 113 221 227 220 236 204 257 218 218 253 235 145 333 301 315 316 317 289 296 298 319 312 319 315 279 284 292 274 181 179 192 176 181
223 201 147 168 193 260 271 268 226 232 261 264 271 189 262 294 272 236 225 154 111 189 230 225 240 254 254 253 224 200 253 214 219 228 248 296 306 319 323 313 298 307 337 336 331 322 294 11 11 41 359 224 192 183
230 68 112 196 218 243 255 230 242 284 269 247 292 197 245 257 254 229 151 121 208 217 208 217 237 250 268 264 254 222 178 126 131 186 204 119 38 342 325 337 50 357 327 9 354 298 331 289 114 85 66 51 28 356
249 158 164 185 233 232 259 233 232 243 245 259 326 268 264 262 235 97 177 213 228 228 216 222 234 236 236 270 239 206 232 75 57 257 230 147 139 343 316 41 175 138 39 354 346 33 189 238 199 121 119 103 80 30
240 229 209 217 201 260 266 247 219 251 239 249 241 253 103 304 296 178 242 254 277 313 336 299 351 351 333 273 256 59 65 84 265 238 277 165 76 18 324 47 72 202 186 186 67 70 52 117 190 120 124 96 77 25
214 244 194 250 225 236 244 240 226 251 256 215 169 240 201 216 240 213 183 302 326 315 312 324 0 24 359 348 23 22 33 39 55 217 248 171 140 93 40 2 310 291 304 15 69 37 214 114 138 166 154 154 158 199
227 213 195 238 237 215 279 290 3 348 321 260 243 295 224 261 32 332 215 234 255 271 311 12 9 107 38 47 71 36 45 40 295 251 272 146 131 132 146 188 206 282 263 337 314 101 131 145 116 96 8 17 128 156
247 243 209 216 238 280 278 252 249 213 234 271 256 223 178 54 261 209 244 235 238 245 190 103 117 83 95 95 269 252 196 143 215 249 289 96 60 88 180 199 292 249 153 60 31 37 76 109 111 116 120 3 23 86
243 261 233 208 213 221 259 256 250 285 315 263 284 296 126 241 155 229 225 244 208 210 83 78 141 158 127 182 283 335 354 345 8 69 1 337 318 311 293 248 198 31 28 47 212 206 161 148 155 160 158 176 199 203
240 236 239 258 238 235 247 307 321 291 277 270 257 58 88 314 232 262 281 289 12 100 102 98 44 22 22 338 297 316 35 31 40 81 95 54 35 352 262 169 164 170 75 63 29 44 99 101 105 109 126 141 161 155
244 154 268 258 262 277 236 151 245 260 255 259 284 26 29 326 316 344 17 54 101 126 172 142 127 114 87 45 45 46 20 22 38 76 70 56 1 327 359 354 317 226 175 145 114 82 31 83 81 85 103 105 122 143
289 209 242 240 245 222 211 189 212 222 246 69 67 94 83 335 10 4 33 34 97 106 117 138 112 51 91 92 97 75 33 357 36 47 55 47 27 21 17 9 5 22 91 50 38 92 124 232 184 162 150 167 171 167
187 215 215 203 140 207 112 74 70 21 360 30 2 35 20 49 33 323 319 48 50 46 56 105 115 128 125 120 100 97 113 87 49 33 32 36 36 18 25 31 39 44 55 46 51 50 38 38 19 351 235 106 94 81
180 199 232 126 111 90 9 79 54 36 1 355 333 12 40 100 46 280 323 133 149 155 128 138 137 140 145 130 133 119 102 98 91 66 53 57 56 45 41 45 47 55 58 57 49 41 33 32 35 31 18 16 23 31